This is the latest recevied weather packets stored in our database for station/object WA6GRA. If no packets are shown the sender has not sent any weather packets the latest 10 day(s).
| Time | Temp. | Humidity | Pressure | Rain* | Wind** | Luminosity | Snow |
|---|---|---|---|---|---|---|---|
| 1777790409 | 20° C | 66% | 1008.3 hPa | 0 mm | - | 0 W/m² | - |
| 1777789804 | 20.56° C | 66% | 1008.3 hPa | 0 mm | - | 0 W/m² | - |
| 1777789201 | 20.56° C | 66% | 1008.3 hPa | 0 mm | - | 0 W/m² | - |
| 1777788598 | 20.56° C | 67% | 1008.4 hPa | 0 mm | - | 0 W/m² | - |
| 1777787994 | 20.56° C | 70% | 1008.6 hPa | 0 mm | - | 0 W/m² | - |
| 1777787391 | 21.11° C | 68% | 1008.4 hPa | 0 mm | - | 0 W/m² | - |
| 1777786791 | 21.11° C | 67% | 1008.5 hPa | 0 mm | - | 0 W/m² | - |
| 1777786190 | 21.67° C | 67% | 1008.6 hPa | 0 mm | - | 0 W/m² | - |
| 1777785590 | 21.67° C | 67% | 1008.5 hPa | 0 mm | - | 0 W/m² | - |
| 1777784989 | 21.67° C | 67% | 1008.4 hPa | 0 mm | - | 0 W/m² | - |
| 1777784389 | 22.22° C | 65% | 1008.3 hPa | 0 mm | - | 0 W/m² | - |
| 1777783788 | 22.78° C | 64% | 1008.2 hPa | 0 mm | - | 0 W/m² | - |
| 1777783188 | 23.33° C | 62% | 1007.8 hPa | 0 mm | - | 0 W/m² | - |
| 1777782587 | 23.89° C | 61% | 1007.6 hPa | 0 mm | - | 0 W/m² | - |
| 1777781986 | 23.89° C | 59% | 1007.7 hPa | 0 mm | - | 0 W/m² | - |
| 1777781386 | 24.44° C | 58% | 1007.5 hPa | 0 mm | - | 0 W/m² | - |
| 1777780786 | 24.44° C | 58% | 1007.3 hPa | 0 mm | - | 0 W/m² | - |
| 1777780181 | 24.44° C | 58% | 1007.1 hPa | 0 mm | - | 0 W/m² | - |
| 1777779581 | 25° C | 56% | 1007.1 hPa | 0 mm | - | 0 W/m² | - |
| 1777778976 | 25.56° C | 54% | 1006.9 hPa | 0 mm | - | 0 W/m² | - |
| 1777778372 | 26.11° C | 50% | 1006.9 hPa | 0 mm | - | 0 W/m² | - |
| 1777777772 | 26.67° C | 46% | 1006.8 hPa | 0 mm | - | 0 W/m² | - |
| 1777777171 | 26.67° C | 42% | 1006.8 hPa | 0 mm | - | 0 W/m² | - |
| 1777776572 | 27.22° C | 40% | 1006.6 hPa | 0 mm | - | 2 W/m² | - |
| 1777775971 | 27.78° C | 39% | 1006.6 hPa | 0 mm | - | 5 W/m² | - |
* Rain latest hour (hover to see other rain measurements)
** Current wind speed in m/s (hover to see current wind gust speed)